Location: Barrialito
(10.3588°N, 66.9747°W)
Time: 04:36:52
(UTC+00:00)

H-2A R/B - Pass Details

Date: 01 July 2022
Orbit: 732 x 837 km, 98.2° (Epoch: 09 August)

Event Time Altitude Azimuth Distance (km) Brightness Sun altitude
Rises 09:43:31 0° 29° (NNE) 3,229 6.2 -6.8°
Reaches altitude 10° 09:46:07 10° 40° (NE) 2,286 5.7 -6.2°
Maximum altitude 09:50:26 29° 100° (E) 1,344 4.0 -5.3°
Drops below altitude 10° 09:54:41 10° 160° (SSE) 2,243 4.4 -4.3°
Sets 09:57:12 0° 171° (S) 3,157 5.0 -3.8°
